NQ2U-13 Weather Reports


time (UTC)temp
C
wind
direction
speed
KPH
gust
KPH
rain 1hr
cm
rain 24hr
cm
rain mn
cm
humidity
%
barometer
mb
20260510104538 9 0 0.0 3.2 0.00 0.66 0.00 94 1009.5
20260510104029 9 0 0.0 6.4 0.00 0.66 0.00 94 1009.6
20260510103529 9 0 0.0 6.4 0.00 0.66 0.00 94 1009.4
20260510103045 9 0 1.6 6.4 0.00 0.66 0.00 94 1009.4
20260510102530 9 0 0.0 4.8 0.00 0.66 0.00 94 1009.4
20260510102031 9 0 0.0 4.8 0.00 0.66 0.00 94 1009.3
20260510101548 8 193 0.0 4.8 0.00 0.66 0.00 94 1009.3
20260510101030 8 0 0.0 4.8 0.00 0.66 0.00 94 1009.1
20260510100532 8 0 0.0 0.0 0.00 0.66 0.00 94 1009.0
20260510100041 8 0 0.0 0.0 0.00 0.66 0.00 94 1008.9
20260510095530 8 0 0.0 0.0 0.00 0.69 0.00 94 1008.8
20260510095029 8 0 0.0 0.0 0.00 0.69 0.00 94 1008.7
20260510094537 8 0 0.0 0.0 0.00 0.69 0.00 94 1008.7
20260510094030 8 0 0.0 0.0 0.00 0.69 0.00 94 1008.6
20260510093531 8 0 0.0 0.0 0.00 0.69 0.00 94 1008.3
20260510093059 8 0 0.0 0.0 0.00 0.69 0.00 94 1008.3
20260510092531 8 0 0.0 0.0 0.00 0.69 0.00 94 1008.2
20260510092030 8 0 0.0 0.0 0.00 0.69 0.00 93 1008.1
20260510091545 8 0 0.0 0.0 0.00 0.69 0.00 93 1008.1
20260510091030 9 0 0.0 0.0 0.00 0.69 0.00 93 1008.1
20260510090531 9 0 0.0 0.0 0.00 0.69 0.00 93 1008.2
20260510090054 9 0 0.0 0.0 0.00 0.69 0.00 93 1008.0
20260510085532 9 0 0.0 0.0 0.00 0.76 0.00 94 1008.0
20260510085030 9 0 0.0 0.0 0.00 0.76 0.00 93 1008.0
20260510084544 9 0 0.0 0.0 0.00 0.76 0.00 94 1008.0
20260510084030 9 0 0.0 0.0 0.00 0.76 0.00 93 1008.1
20260510083532 9 0 0.0 0.0 0.00 0.76 0.00 94 1007.9
20260510083037 9 0 0.0 0.0 0.00 0.76 0.00 93 1007.9
20260510082529 9 0 0.0 0.0 0.00 0.76 0.00 94 1008.1
20260510082030 9 0 0.0 0.0 0.00 0.76 0.00 94 1008.0
20260510081600 9 0 0.0 0.0 0.00 0.76 0.00 94 1007.8
20260510081030 9 0 0.0 0.0 0.00 0.76 0.00 94 1008.0
20260510080530 9 0 0.0 0.0 0.00 0.76 0.00 94 1007.9
20260510080045 9 0 0.0 0.0 0.00 0.76 0.00 94 1007.8
20260510075531 9 0 0.0 0.0 0.00 0.76 0.00 94 1007.7
20260510075029 9 0 0.0 0.0 0.00 0.76 0.00 94 1007.8
20260510074540 9 0 0.0 0.0 0.00 0.76 0.00 94 1008.3
20260510074029 9 0 0.0 0.0 0.00 0.76 0.00 94 1008.2
20260510073530 9 0 0.0 0.0 0.00 0.76 0.00 94 1008.5
20260510073042 9 0 0.0 0.0 0.00 0.76 0.00 94 1008.2
20260510072530 9 0 0.0 0.0 0.00 0.76 0.00 94 1008.0
20260510072030 9 0 0.0 0.0 0.00 0.76 0.00 94 1008.4
20260510071541 8 0 0.0 0.0 0.00 0.76 0.00 94 1008.1
20260510071030 8 0 0.0 0.0 0.00 0.76 0.00 94 1007.8
20260510070530 8 0 0.0 0.0 0.00 0.76 0.00 94 1008.0
20260510070042 8 0 0.0 0.0 0.00 0.76 0.00 94 1008.3
20260510065533 8 0 0.0 0.0 0.00 0.76 0.00 94 1008.7
20260510065030 8 0 0.0 0.0 0.00 0.76 0.00 94 1008.6
20260510064543 8 0 0.0 0.0 0.00 0.76 0.00 94 1008.9
20260510064029 8 0 0.0 0.0 0.00 0.76 0.00 94 1009.1
20260510063529 8 0 0.0 0.0 0.00 0.76 0.00 94 1009.0
20260510063045 8 0 0.0 1.6 0.00 0.76 0.00 94 1009.2
20260510062531 8 0 0.0 4.8 0.00 0.76 0.00 94 1009.3
20260510062030 9 0 0.0 4.8 0.00 0.76 0.00 94 1009.3
20260510061543 9 0 0.0 3.2 0.00 0.76 0.00 94 1009.2
20260510061030 9 0 0.0 1.6 0.00 0.76 0.00 94 1009.2
20260510060530 8 0 0.0 3.2 0.00 0.76 0.00 94 1009.2
20260510060041 8 0 0.0 4.8 0.00 0.76 0.00 94 1009.2
20260510055529 8 0 0.0 4.8 0.00 0.76 0.00 94 1009.2
20260510055030 8 0 0.0 3.2 0.00 0.76 0.00 94 1009.2
20260510054539 8 0 0.0 4.8 0.00 0.76 0.00 94 1009.2
20260510054030 8 151 0.0 4.8 0.00 0.76 0.00 94 1009.1
20260510053529 8 0 0.0 3.2 0.00 0.76 0.00 94 1009.0
20260510053036 8 0 0.0 0.0 0.00 0.76 0.00 94 1008.9
20260510052530 8 0 0.0 3.2 0.00 0.76 0.00 93 1008.7
20260510052030 8 0 0.0 3.2 0.00 0.76 0.00 93 1008.5
20260510051544 8 169 0.0 4.8 0.00 0.76 0.00 93 1008.5
20260510051032 8 0 0.0 4.8 0.00 0.76 0.00 93 1008.4
20260510050530 8 138 0.0 4.8 0.00 0.76 0.00 93 1008.4
20260510050040 8 0 0.0 3.2 0.00 0.76 0.00 93 1008.3
20260510045532 8 0 0.0 3.2 0.00 0.76 0.00 93 1008.2
20260510045030 8 0 0.0 3.2 0.00 0.76 0.00 92 1008.2
20260510044552 8 0 0.0 3.2 0.00 0.76 0.00 92 1008.1
20260510044030 8 207 0.0 1.6 0.00 0.76 0.00 92 1008.1
20260510043530 9 0 0.0 8.0 0.00 0.76 0.00 92 1008.1
20260510043039 9 0 0.0 8.0 0.00 0.76 0.00 91 1008.2
20260510042529 9 210 1.6 8.0 0.00 0.76 0.00 91 1008.2
20260510042029 9 0 0.0 3.2 0.00 0.76 0.00 91 1008.3
20260510041535 10 0 0.0 6.4 0.00 0.76 0.00 91 1008.5
20260510041032 10 0 0.0 6.4 0.00 0.76 0.00 90 1008.5
20260510040530 10 192 0.0 6.4 0.00 0.76 0.00 90 1008.4
20260510040043 10 230 0.0 6.4 0.00 0.76 0.00 90 1008.4
20260510035530 10 0 0.0 6.4 0.00 0.76 0.76 90 1008.5
20260510035030 10 231 0.0 4.8 0.00 0.76 0.76 90 1008.3
20260510034541 10 150 1.6 4.8 0.00 0.76 0.76 90 1008.1
20260510034030 10 220 0.0 4.8 0.00 0.76 0.76 90 1008.0
20260510033529 10 152 1.6 6.4 0.00 0.76 0.76 90 1008.0
20260510033038 10 0 0.0 6.4 0.00 0.76 0.76 90 1007.9
20260510032529 10 157 0.0 6.4 0.00 0.76 0.76 90 1008.0
20260510032030 10 227 0.0 4.8 0.00 0.76 0.76 90 1008.1
20260510031540 10 132 0.0 3.2 0.00 0.76 0.76 90 1008.2
20260510031029 10 352 0.0 4.8 0.00 0.76 0.76 90 1008.3
20260510030529 10 0 0.0 4.8 0.00 0.76 0.76 90 1008.3
20260510030045 10 0 0.0 3.2 0.00 0.76 0.76 90 1008.2
20260510025530 10 153 0.0 3.2 0.00 0.76 0.76 89 1008.1
20260510025030 10 0 0.0 4.8 0.00 0.76 0.76 89 1007.9
20260510024542 11 126 0.0 4.8 0.00 0.76 0.76 89 1007.9
20260510024030 11 150 0.0 6.4 0.00 0.76 0.76 89 1008.0
20260510023531 11 98 0.0 9.7 0.00 0.76 0.76 89 1008.1
20260510023037 11 144 1.6 9.7 0.00 0.76 0.76 89 1008.2
20260510022530 11 0 0.0 0.0 0.00 0.76 0.76 89 1008.4
20260510022030 11 0 0.0 1.6 0.00 0.76 0.76 88 1008.1
20260510021544 11 0 0.0 1.6 0.00 0.76 0.76 88 1008.1
20260510021029 11 0 0.0 1.6 0.00 0.76 0.76 87 1008.0
20260510020530 11 0 0.0 1.6 0.00 0.76 0.76 87 1008.1
20260510020035 11 0 0.0 1.6 0.00 0.76 0.76 87 1008.1
20260510015531 11 0 0.0 1.6 0.00 0.76 0.76 87 1008.1
20260510015030 11 0 0.0 1.6 0.00 0.76 0.76 87 1008.1
20260510014545 11 0 0.0 1.6 0.00 0.76 0.76 87 1008.1
20260510014030 11 0 0.0 1.6 0.00 0.76 0.76 87 1008.2
20260510013529 11 0 0.0 3.2 0.00 0.76 0.76 87 1008.0
20260510013038 11 0 0.0 3.2 0.00 0.76 0.76 87 1008.0
20260510012534 11 0 0.0 3.2 0.00 0.76 0.76 86 1008.2
20260510012030 11 0 0.0 6.4 0.00 0.76 0.76 86 1008.1
20260510011536 11 0 0.0 6.4 0.00 0.76 0.76 86 1008.1
20260510011030 11 0 0.0 1.6 0.00 0.76 0.76 87 1007.9
20260510010529 11 0 0.0 4.8 0.00 0.76 0.76 87 1007.9
20260510010035 11 0 0.0 4.8 0.00 0.76 0.76 87 1007.9
20260510005530 11 0 0.0 4.8 0.00 0.76 0.76 87 1008.0
20260510005032 11 0 0.0 8.0 0.00 0.76 0.76 87 1008.0
20260510004543 11 0 0.0 8.0 0.00 0.76 0.76 87 1008.0
20260510004030 11 203 0.0 4.8 0.00 0.76 0.76 87 1007.8
20260510003530 11 0 0.0 1.6 0.00 0.76 0.76 87 1007.6
20260510003037 12 0 0.0 1.6 0.00 0.76 0.76 87 1007.6
20260510002530 11 0 0.0 0.0 0.00 0.76 0.76 88 1007.5
20260510002029 12 0 0.0 0.0 0.00 0.76 0.76 88 1007.5
20260510001540 12 0 0.0 1.6 0.00 0.76 0.76 88 1007.6
20260510001030 12 0 0.0 1.6 0.00 0.76 0.76 88 1007.6
20260510000529 12 0 0.0 0.0 0.00 0.76 0.76 88 1007.7
20260510000039 12 0 0.0 0.0 0.00 0.76 0.76 88 1007.7
20260509235529 12 0 0.0 0.0 0.00 0.76 0.76 87 1007.5
20260509235030 12 0 0.0 1.6 0.00 0.76 0.76 87 1007.3
20260509234545 12 0 0.0 1.6 0.00 0.76 0.76 87 1007.1
20260509234030 12 0 0.0 1.6 0.00 0.76 0.76 86 1007.0
20260509233530 12 0 0.0 1.6 0.00 0.76 0.76 85 1006.9
20260509233040 12 0 0.0 1.6 0.00 0.76 0.76 85 1006.9
20260509232530 12 0 0.0 1.6 0.00 0.76 0.76 84 1006.9
20260509232030 13 0 0.0 1.6 0.00 0.76 0.76 83 1006.9
20260509231539 13 0 0.0 0.0 0.00 0.76 0.76 82 1006.8
20260509231031 13 0 0.0 3.2 0.00 0.76 0.76 81 1006.7
20260509230529 13 0 0.0 3.2 0.00 0.76 0.76 82 1006.8
20260509230037 13 187 0.0 3.2 0.00 0.76 0.76 80 1006.7
20260509225604 13 0 0.0 1.6 0.00 0.76 0.76 80 1006.7
20260509225032 13 0 0.0 6.4 0.00 0.76 0.76 80 1006.7
20260509224543 13 0 0.0 6.4 0.00 0.76 0.76 79 1006.7
20260509224030 13 0 0.0 4.8 0.00 0.76 0.76 80 1006.7
20260509223530 13 142 0.0 4.8 0.00 0.76 0.76 79 1006.6
20260509223037 13 240 1.6 4.8 0.00 0.76 0.76 79 1006.8
20260509222530 13 0 0.0 3.2 0.00 0.76 0.76 80 1006.8
20260509222035 13 0 0.0 1.6 0.00 0.76 0.76 81 1006.8
20260509221543 13 146 0.0 1.6 0.00 0.76 0.76 83 1006.8
20260509221030 13 0 0.0 1.6 0.00 0.76 0.76 82 1006.9
20260509220531 13 0 0.0 1.6 0.00 0.76 0.76 82 1006.9
20260509220044 13 0 0.0 1.6 0.00 0.76 0.76 81 1007.0
20260509215531 13 200 0.0 3.2 0.00 0.76 0.76 80 1007.1
20260509215031 13 0 0.0 3.2 0.00 0.76 0.76 80 1007.1
20260509214543 13 0 0.0 3.2 0.00 0.76 0.76 79 1007.1
20260509214033 13 0 0.0 4.8 0.00 0.76 0.76 81 1007.1
20260509213530 13 0 0.0 4.8 0.00 0.76 0.76 82 1007.2
20260509213042 13 88 0.0 3.2 0.00 0.76 0.76 81 1007.2
20260509212529 13 39 0.0 3.2 0.00 0.76 0.76 82 1007.2
20260509212027 13 149 0.0 0.0 0.00 0.76 0.76 84 1007.3
20260509211543 13 0 0.0 1.6 0.00 0.76 0.76 83 1007.3
20260509211030 13 0 0.0 1.6 0.00 0.76 0.76 84 1007.3
20260509210531 12 0 0.0 1.6 0.00 0.76 0.76 86 1007.4
20260509210047 12 0 0.0 4.8 0.00 0.76 0.76 87 1007.4
20260509205530 12 0 0.0 4.8 0.00 0.76 0.76 87 1007.3
20260509205030 12 0 0.0 4.8 0.00 0.76 0.76 87 1007.3
20260509204543 12 0 0.0 3.2 0.00 0.76 0.76 88 1007.4
20260509204031 12 0 0.0 3.2 0.00 0.76 0.76 89 1007.4
20260509203533 12 186 0.0 6.4 0.00 0.76 0.76 88 1007.6
20260509203102 11 0 0.0 6.4 0.00 0.76 0.76 88 1007.7
20260509202531 11 0 0.0 4.8 0.00 0.76 0.76 88 1007.7
20260509202034 11 0 0.0 4.8 0.00 0.76 0.76 88 1007.8
20260509201541 12 0 0.0 4.8 0.00 0.76 0.76 89 1007.8
20260509201031 12 0 0.0 3.2 0.00 0.76 0.76 89 1007.8
20260509200530 12 0 0.0 3.2 0.00 0.76 0.76 90 1007.8
20260509200036 11 0 0.0 6.4 0.00 0.76 0.76 90 1007.9
20260509195532 11 0 0.0 6.4 0.03 0.76 0.76 90 1008.0
20260509195030 11 0 0.0 6.4 0.03 0.76 0.76 90 1008.0
20260509194540 11 227 1.6 8.0 0.03 0.76 0.76 90 1008.0
20260509194030 11 0 0.0 8.0 0.03 0.76 0.76 90 1008.1
20260509193531 11 0 0.0 4.8 0.03 0.76 0.76 90 1008.2
20260509193047 11 0 0.0 4.8 0.03 0.76 0.76 91 1008.2
20260509192530 11 236 0.0 6.4 0.03 0.76 0.76 91 1008.2
20260509192029 11 0 0.0 6.4 0.03 0.76 0.76 90 1008.4
20260509191554 11 244 0.0 6.4 0.03 0.76 0.76 91 1008.5
20260509191030 11 134 0.0 3.2 0.03 0.76 0.76 91 1008.5
20260509190530 11 188 0.0 4.8 0.03 0.76 0.76 90 1008.6
20260509190041 11 0 0.0 6.4 0.03 0.76 0.76 91 1008.7
20260509185530 11 119 0.0 6.4 0.00 0.74 0.74 90 1008.7
20260509185033 11 0 0.0 3.2 0.00 0.74 0.74 90 1008.8
20260509184537 11 0 0.0 4.8 0.00 0.74 0.74 90 1008.9
20260509184030 11 0 0.0 4.8 0.00 0.74 0.74 90 1008.8
20260509183530 11 0 0.0 8.0 0.00 0.74 0.74 90 1008.8
20260509183039 11 0 0.0 8.0 0.00 0.74 0.74 90 1008.7
20260509182530 11 0 0.0 4.8 0.03 0.74 0.74 89 1008.8
20260509182029 11 152 0.0 4.8 0.03 0.74 0.74 90 1008.8
20260509181540 11 0 0.0 8.0 0.03 0.74 0.74 90 1008.8
20260509181031 11 0 0.0 8.0 0.03 0.74 0.74 90 1008.7
20260509180532 11 231 0.0 8.0 0.03 0.74 0.74 91 1008.7
20260509180043 11 0 0.0 4.8 0.05 0.74 0.74 91 1008.7
20260509175530 11 0 0.0 4.8 0.05 0.74 0.74 91 1008.7
20260509175030 11 0 0.0 4.8 0.05 0.74 0.74 91 1008.7
20260509174542 11 0 0.0 6.4 0.05 0.74 0.74 91 1008.7
20260509174032 11 0 0.0 6.4 0.08 0.74 0.74 92 1008.7
20260509173530 11 240 0.0 1.6 0.08 0.74 0.74 92 1008.8
20260509173036 11 0 0.0 1.6 0.08 0.74 0.74 93 1008.8
20260509172530 10 0 0.0 1.6 0.08 0.71 0.71 92 1008.9
20260509172030 10 0 0.0 1.6 0.08 0.71 0.71 92 1008.9
20260509171544 10 0 0.0 1.6 0.08 0.71 0.71 93 1009.1
20260509171029 10 0 0.0 1.6 0.08 0.71 0.71 92 1009.1
20260509170529 10 0 0.0 1.6 0.10 0.71 0.71 92 1009.2
20260509170039 10 0 0.0 0.0 0.08 0.69 0.69 93 1009.2
20260509165530 10 0 0.0 0.0 0.08 0.69 0.69 93 1009.2
20260509165030 10 0 0.0 1.6 0.08 0.69 0.69 93 1009.3
20260509164552 10 0 0.0 3.2 0.10 0.69 0.69 93 1009.3
20260509164030 10 0 0.0 3.2 0.08 0.66 0.66 94 1009.3
20260509163534 9 0 0.0 3.2 0.08 0.66 0.66 93 1009.3
20260509163047 10 0 0.0 3.2 0.10 0.66 0.66 93 1009.4
20260509162530 10 0 0.0 3.2 0.08 0.64 0.64 95 1009.4
20260509162029 9 0 0.0 0.0 0.08 0.64 0.64 95 1009.5
20260509161537 8 0 0.0 0.0 0.10 0.64 0.64 95 1009.6
20260509161030 8 0 0.0 3.2 0.10 0.64 0.64 94 1009.6
20260509160530 8 0 0.0 3.2 0.10 0.61 0.61 95 1009.7
20260509160039 8 323 0.0 3.2 0.13 0.61 0.61 95 1009.8
20260509155531 8 336 0.0 3.2 0.15 0.61 0.61 94 1009.9
20260509155031 8 0 0.0 3.2 0.15 0.61 0.61 94 1010.0
20260509154543 8 0 0.0 0.0 0.15 0.58 0.58 94 1010.1
20260509154031 7 0 0.0 0.0 0.18 0.58 0.58 94 1010.1
20260509153530 8 0 0.0 0.0 0.18 0.58 0.58 93 1010.2
20260509153044 8 0 0.0 0.0 0.18 0.56 0.56 94 1010.3
20260509152530 7 0 0.0 0.0 0.18 0.56 0.56 94 1010.4
20260509152031 7 0 0.0 0.0 0.20 0.56 0.56 94 1010.4
20260509151542 7 0 0.0 0.0 0.18 0.53 0.53 94 1010.5
20260509151032 7 0 0.0 0.0 0.18 0.51 0.51 94 1010.5
20260509150530 7 0 0.0 3.2 0.18 0.51 0.51 94 1010.6
20260509150040 7 0 0.0 3.2 0.18 0.48 0.48 94 1010.7
20260509145532 7 0 0.0 3.2 0.15 0.46 0.46 94 1010.7
20260509145030 7 0 0.0 3.2 0.13 0.43 0.43 94 1010.7
20260509144540 6 0 0.0 0.0 0.15 0.43 0.43 94 1010.7
20260509144030 7 0 0.0 0.0 0.13 0.41 0.41 94 1010.7
20260509143532 7 0 0.0 0.0 0.15 0.41 0.41 94 1010.7
20260509143035 7 0 0.0 0.0 0.13 0.38 0.38 94 1010.7
20260509142533 6 0 0.0 0.0 0.13 0.38 0.38 93 1010.7
20260509142034 6 0 0.0 0.0 0.13 0.36 0.36 94 1010.7
20260509141543 6 0 0.0 0.0 0.13 0.36 0.36 94 1010.7
20260509141030 6 0 0.0 0.0 0.10 0.33 0.33 94 1010.7
20260509140530 6 0 0.0 0.0 0.10 0.33 0.33 94 1010.7
20260509140045 6 0 0.0 1.6 0.10 0.30 0.30 94 1010.6
20260509135530 6 0 0.0 3.2 0.10 0.30 0.30 94 1010.6
20260509135030 6 0 0.0 3.2 0.10 0.30 0.30 94 1010.7
20260509134538 6 0 0.0 3.2 0.10 0.28 0.28 94 1010.8
20260509134031 6 136 0.0 3.2 0.10 0.28 0.28 93 1010.8
20260509133530 6 0 0.0 0.0 0.08 0.25 0.25 94 1010.8
20260509133040 6 0 0.0 1.6 0.10 0.25 0.25 93 1010.8
20260509132529 6 0 0.0 1.6 0.10 0.25 0.25 94 1010.8
20260509132029 6 0 0.0 1.6 0.08 0.23 0.23 94 1010.7
20260509131536 6 0 0.0 1.6 0.08 0.23 0.23 94 1010.8
20260509131029 5 0 0.0 1.6 0.08 0.23 0.23 94 1010.8
20260509130530 5 174 0.0 1.6 0.10 0.23 0.23 94 1010.8
20260509130056 5 0 0.0 1.6 0.08 0.20 0.20 93 1010.8
20260509125533 5 0 0.0 4.8 0.08 0.20 0.20 94 1010.8
20260509125030 5 0 0.0 4.8 0.08 0.20 0.20 94 1010.9
20260509124539 5 0 0.0 3.2 0.05 0.18 0.18 93 1010.8
20260509124030 5 0 0.0 3.2 0.08 0.18 0.18 93 1010.8
20260509123530 5 0 0.0 3.2 0.08 0.18 0.18 93 1010.8
20260509123038 5 206 0.0 1.6 0.05 0.15 0.15 93 1010.9
20260509122529 5 0 0.0 1.6 0.05 0.15 0.15 94 1010.9
20260509122030 5 0 0.0 1.6 0.05 0.15 0.15 93 1010.8
20260509121536 5 0 0.0 1.6 0.05 0.15 0.15 93 1010.9
20260509121030 5 0 0.0 3.2 0.03 0.13 0.13 93 1010.9
20260509120530 5 0 0.0 3.2 0.03 0.13 0.13 93 1011.0
20260509120036 5 205 0.0 3.2 0.03 0.13 0.13 93 1011.0
20260509115529 5 0 0.0 3.2 0.03 0.13 0.13 93 1011.0
20260509115031 5 0 0.0 3.2 0.03 0.13 0.13 93 1011.0
20260509114539 4 0 0.0 3.2 0.03 0.13 0.13 93 1011.0
20260509114029 4 0 0.0 3.2 0.00 0.10 0.10 93 1011.1
20260509113531 4 0 0.0 3.2 0.00 0.10 0.10 93 1011.0
20260509113043 4 163 0.0 3.2 0.00 0.10 0.10 93 1011.0
20260509112533 4 0 0.0 3.2 0.00 0.10 0.10 93 1011.1
20260509112030 4 0 0.0 3.2 0.00 0.10 0.10 93 1011.0
20260509111539 4 0 0.0 3.2 0.00 0.10 0.10 93 1011.0
20260509111030 4 176 0.0 3.2 0.00 0.10 0.10 93 1011.1
20260509110529 4 0 0.0 1.6 0.00 0.10 0.10 93 1010.9
20260509110040 4 0 0.0 3.2 0.00 0.10 0.10 93 1010.8
20260509105530 4 0 0.0 3.2 0.00 0.10 0.10 93 1010.9
20260509105030 4 0 0.0 3.2 0.00 0.10 0.10 93 1011.0